Location: Alphen
(52.1351°N, 4.6549°E)
Time: 01:41:05
(UTC+00:00)

Cosmos 1400 Rocket - Pass Details

Date: 27 January 2021
Orbit: 520 x 568 km, 81.2° (Epoch: 26 February)

Event Time Altitude Azimuth Distance (km) Brightness Sun altitude
Exits shadow 06:29:13 - 252° (WSW) 2,122 5.3 -9.2°
Reaches altitude 10° 06:30:09 10° 262° (W) 1,872 5.0 -9.1°
Maximum altitude 06:32:44 16° 300° (WNW) 1,532 4.5 -8.7°
Drops below altitude 10° 06:35:19 10° 339° (NNW) 1,882 5.2 -8.3°
Sets 06:38:17 0° 2° (N) 2,783 6.2 -7.9°
